DELTA 1 DEB, 9975

Orbit data source: Space-Track

DELTA 1 DEB, 9975 is space debris in SSO originally from a launch on Tue, 06 Nov 1973 UTC launched from the Air Force Western Test Range (AFWTR). Debris objects in space refer to the collection of defunct objects orbiting the Earth. Examples of debris include non-operational satellites, rocket bodies, and fragments generated from explosions, collisions, or faulty payload assembly.

Loading next visibility...
Identifier
9975, 1973-086GE
Orbit
SSO
Country
Flag of USUS
Related business
Manufacturer
Unknown
Mission
Spacecraft
Bus & Motor
Unknown
Mass
Unknown
Launch date (UTC)
1973-11-06 (53 years ago)
Launch vehicle
Unknown
Launch site
Air Force Western Test Range (AFWTR)
Object type
Payload
Rocket body
Debris
Shape & HBR
Unknown shape, 0.1 m
Radar Cross Section
Medium (>0.1 m² and <1 m²)

Expand to show TLE details & history
Last TLE update: 6 hours ago

TLE from 6 hours ago
0 DELTA 1 DEB
1  9975U 73086GE  26221.83635118  .00000666  00000-0  49659-2 0  9995
2  9975 102.4723 191.5195 0094526 111.5144 318.6141 12.44404183 99996
Epoch: 2026-08-09T20:04Z
TLE epoch observation values (Epoch: 2026-08-09T20:04:20.741Z)
Latitude
66.14873°
Longitude
-97.7504°
Altitude
1,443.737 km
Speed
7.171 km/s
True Right ascension
10h 46m 39s
True Declination
66° 01' 57"
Sunlit
Object was in daylight at epoch
Visualization orbit readout
Latitude
Unknown
Longitude
Unknown
Altitude
Unknown
Speed
Unknown
Apparent Right ascension
Unknown
Apparent Declination
Unknown
Sunlit
N/A
Visualization observer readout
Local Sidereal Time
16:14:08
Azimuth
Unknown
Elevation
Unknown
Doppler factor
Unknown
Orbital elements
Apogee altitude
1,559.918 km
Perigee altitude
1,411.253 km
Semi-major axis
7,863.723 km
Eccentricity
0.00945
Inclination
102.4723°
RAAN
191.5195°
Arg. of periapsis
111.5144°
True anomaly
317.89159°
Mean anomaly
318.6141°
Eccentric anomaly
318.25349°
Mean motion
3.11244 °/min
Orbital period
115.66 mins
BSTAR
0.0049659
Loading maneuver chart data...
Computing Atmospheric mass density...
Loading historical data...
Loading historical data...
Loading historical data...
Loading historical data...
Loading historical data...
Loading historical data...
Loading historical data...

Documentation

Showing up to 5 results
|